User: anonymous   Login
Location: Stoke Bliss
(52.2667°N, 2.5167°W)
Time: 17:54:18
(UTC+00:00)
Language:

Cosmos 2278 - Orbit

View from above orbital plane
View from above orbital plane
View from above satellite
View from above satellite

Ground track
Ground track

The orbit data is extracted from the following two-line orbital elements,

1 23087U 94023A   21129.13101238  .00000300  00000-0  18327-3 0  9999
2 23087  71.0534 266.9179 0009895 213.1266 146.9238 14.13826267395475
Epoch (UTC): 09 May 2021 03:08:39
Eccentricity: 0.0009895
inclination: 71.0534°
perigee height: 839 km
apogee height: 853 km
right ascension of ascending node: 266.9179°
argument of perigee: 213.1266°
revolutions per day: 14.13826267
mean anomaly at epoch: 146.9238°
orbit number at epoch: 39547

The dashed part of the orbit path shows where the satellite is in the earth's shadow,  

DLR